• In Hungary
  • List of Countries
  • For 7 days
  • Water Temperature
  • Satellite Maps
  • Weather Map
  • News
  • Weather Widgets
  • user-avatar
    Login

    Hourly Weather Niskowa

    Today, 16 July, Monday

    Time Temperature Precipitation Wind Pressure Humidity
    00:00 +16°C° 0.1 mm 2 mps 733 mmHg 93%
    01:00 +16°C° 0 mm 1 mps 733 mmHg 94%
    02:00 +15°C° 0 mm 2 mps 733 mmHg 94%
    03:00 +15°C° 0 mm 2 mps 733 mmHg 94%
    04:00 +15°C° 0 mm 2 mps 733 mmHg 95%
    05:00 +17°C° 0 mm 2 mps 733 mmHg 90%
    06:00 +18°C° 0 mm 3 mps 733 mmHg 85%
    07:00 +20°C° 0 mm 4 mps 733 mmHg 80%
    08:00 +21°C° 0.6 mm 4 mps 733 mmHg 77%
    09:00 +22°C° 0.6 mm 4 mps 732 mmHg 74%
    10:00 +23°C° 0.6 mm 4 mps 732 mmHg 70%
    11:00 +23°C° 0.9 mm 4 mps 732 mmHg 73%
    12:00 +23°C° 0.9 mm 4 mps 732 mmHg 74%
    13:00 +23°C° 0.9 mm 4 mps 731 mmHg 74%
    14:00 +23°C° 1 mm 4 mps 731 mmHg 77%
    15:00 +24°C° 1 mm 3 mps 731 mmHg 79%
    16:00 +22°C° 1 mm 3 mps 731 mmHg 82%
    17:00 +21°C° 0.7 mm 3 mps 731 mmHg 84%
    18:00 +20°C° 0.7 mm 2 mps 730 mmHg 87%
    19:00 +20°C° 0.7 mm 2 mps 730 mmHg 89%
    20:00 +19°C° 0.4 mm 2 mps 730 mmHg 91%
    21:00 +18°C° 0.4 mm 2 mps 730 mmHg 92%
    22:00 +17°C° 0.4 mm 2 mps 730 mmHg 94%
    23:00 +17°C° 0 mm 2 mps 730 mmHg 94%

    Tomorrow, 17 July, Tuesday

    Time Temperature Precipitation Wind Pressure Humidity
    00:00 +17°C° 0 mm 2 mps 730 mmHg 94%
    01:00 +16°C° 0 mm 2 mps 729 mmHg 95%
    02:00 +16°C° 0 mm 2 mps 729 mmHg 95%
    03:00 +16°C° 0 mm 2 mps 729 mmHg 95%
    04:00 +16°C° 0 mm 2 mps 729 mmHg 95%
    05:00 +17°C° 0 mm 3 mps 729 mmHg 91%
    06:00 +18°C° 0 mm 3 mps 729 mmHg 88%
    07:00 +20°C° 0 mm 4 mps 729 mmHg 84%
    08:00 +20°C° 0.2 mm 4 mps 729 mmHg 81%
    09:00 +21°C° 0.2 mm 4 mps 729 mmHg 78%
    10:00 +22°C° 0.2 mm 5 mps 729 mmHg 75%
    11:00 +22°C° 0.5 mm 5 mps 729 mmHg 76%
    12:00 +22°C° 0.5 mm 5 mps 729 mmHg 77%
    13:00 +22°C° 0.5 mm 5 mps 728 mmHg 78%
    14:00 +22°C° 0.4 mm 5 mps 728 mmHg 78%
    15:00 +22°C° 0.4 mm 5 mps 728 mmHg 78%
    16:00 +22°C° 0.4 mm 5 mps 728 mmHg 78%
    17:00 +21°C° 0.2 mm 5 mps 728 mmHg 82%
    18:00 +20°C° 0.2 mm 4 mps 728 mmHg 86%
    19:00 +19°C° 0.2 mm 4 mps 729 mmHg 90%
    20:00 +18°C° 0.1 mm 4 mps 729 mmHg 91%
    21:00 +18°C° 0.1 mm 3 mps 729 mmHg 93%
    22:00 +17°C° 0.1 mm 3 mps 729 mmHg 94%
    23:00 +17°C° 0.4 mm 3 mps 728 mmHg 95%

    Day after tomorrow, 18 July, Wednesday

    Time Temperature Precipitation Wind Pressure Humidity
    00:00 +17°C° 0.4 mm 3 mps 728 mmHg 95%
    01:00 +17°C° 0.4 mm 3 mps 728 mmHg 95%
    02:00 +17°C° 0.9 mm 3 mps 728 mmHg 96%
    03:00 +17°C° 0.9 mm 3 mps 728 mmHg 96%
    04:00 +17°C° 0.9 mm 3 mps 728 mmHg 96%
    05:00 +17°C° 0.8 mm 3 mps 728 mmHg 96%
    06:00 +17°C° 0.8 mm 3 mps 728 mmHg 95%
    07:00 +18°C° 0.8 mm 3 mps 728 mmHg 95%
    08:00 +18°C° 0.8 mm 4 mps 728 mmHg 94%
    09:00 +18°C° 0.8 mm 4 mps 729 mmHg 93%
    10:00 +19°C° 0.8 mm 4 mps 729 mmHg 92%
    11:00 +18°C° 1 mm 4 mps 729 mmHg 93%
    12:00 +17°C° 1 mm 5 mps 729 mmHg 94%
    13:00 +17°C° 1 mm 5 mps 729 mmHg 94%
    14:00 +17°C° 0.7 mm 5 mps 729 mmHg 95%
    15:00 +18°C° 0.7 mm 4 mps 729 mmHg 95%
    16:00 +18°C° 0.7 mm 4 mps 729 mmHg 95%
    17:00 +18°C° 0.9 mm 4 mps 729 mmHg 95%
    18:00 +18°C° 0.9 mm 4 mps 729 mmHg 95%
    19:00 +18°C° 0.9 mm 4 mps 729 mmHg 96%
    20:00 +18°C° 0.6 mm 4 mps 729 mmHg 96%
    21:00 +19°C° 0.6 mm 4 mps 729 mmHg 96%
    22:00 +19°C° 0.6 mm 4 mps 729 mmHg 97%
    23:00 +19°C° 0.4 mm 4 mps 729 mmHg 97%

    19 July, Thursday

    Time Temperature Precipitation Wind Pressure Humidity
    00:00 +19°C° 0.4 mm 4 mps 729 mmHg 97%
    01:00 +19°C° 0.4 mm 4 mps 729 mmHg 97%
    02:00 +19°C° 0.2 mm 4 mps 729 mmHg 97%
    03:00 +19°C° 0.2 mm 3 mps 729 mmHg 97%
    04:00 +18°C° 0.2 mm 3 mps 729 mmHg 97%
    05:00 +19°C° 0.6 mm 3 mps 729 mmHg 97%
    06:00 +19°C° 0.6 mm 3 mps 729 mmHg 96%
    07:00 +19°C° 0.6 mm 3 mps 730 mmHg 96%
    08:00 +19°C° 0.8 mm 3 mps 730 mmHg 95%
    09:00 +19°C° 0.8 mm 3 mps 730 mmHg 95%
    10:00 +19°C° 0.8 mm 3 mps 731 mmHg 94%
    11:00 +19°C° 0.3 mm 3 mps 731 mmHg 94%
    12:00 +19°C° 0.3 mm 3 mps 731 mmHg 93%
    13:00 +20°C° 0.3 mm 4 mps 731 mmHg 92%
    14:00 +20°C° 0.2 mm 4 mps 731 mmHg 91%
    15:00 +20°C° 0.2 mm 4 mps 731 mmHg 90%
    16:00 +20°C° 0.2 mm 4 mps 731 mmHg 89%
    17:00 +20°C° 0 mm 4 mps 732 mmHg 90%
    18:00 +19°C° 0 mm 4 mps 732 mmHg 91%
    19:00 +19°C° 0 mm 3 mps 732 mmHg 92%
    20:00 +18°C° 0 mm 3 mps 732 mmHg 93%
    21:00 +18°C° 0 mm 3 mps 732 mmHg 94%
    22:00 +18°C° 0 mm 3 mps 732 mmHg 95%
    23:00 +18°C° 0 mm 3 mps 732 mmHg 96%

    20 July, Friday

    Time Temperature Precipitation Wind Pressure Humidity
    00:00 +18°C° 0 mm 3 mps 732 mmHg 96%
    01:00 +17°C° 0 mm 3 mps 732 mmHg 96%
    02:00 +18°C° 0.1 mm 3 mps 732 mmHg 96%
    03:00 +18°C° 0.1 mm 3 mps 732 mmHg 96%
    04:00 +18°C° 0.1 mm 2 mps 732 mmHg 96%
    05:00 +18°C° 0.1 mm 2 mps 732 mmHg 95%
    06:00 +18°C° 0.1 mm 2 mps 733 mmHg 94%
    07:00 +19°C° 0.1 mm 2 mps 733 mmHg 93%
    08:00 +19°C° 0.1 mm 3 mps 733 mmHg 91%
    09:00 +20°C° 0.1 mm 3 mps 733 mmHg 89%
    10:00 +20°C° 0.1 mm 3 mps 733 mmHg 87%
    11:00 +21°C° 0.1 mm 3 mps 733 mmHg 83%
    12:00 +22°C° 0.1 mm 3 mps 733 mmHg 79%
    13:00 +24°C° 0.1 mm 3 mps 733 mmHg 75%
    14:00 +24°C° 0.1 mm 3 mps 733 mmHg 73%
    15:00 +24°C° 0.1 mm 3 mps 733 mmHg 72%
    16:00 +25°C° 0.1 mm 3 mps 733 mmHg 71%
    17:00 +24°C° 0.1 mm 2 mps 733 mmHg 76%
    18:00 +21°C° 0.1 mm 2 mps 732 mmHg 81%
    19:00 +21°C° 0.1 mm 1 mps 732 mmHg 87%
    20:00 +20°C° 0 mm 1 mps 732 mmHg 89%
    21:00 +19°C° 0 mm 1 mps 733 mmHg 91%
    22:00 +18°C° 0 mm 1 mps 733 mmHg 93%
    23:00 +18°C° 0 mm 1 mps 733 mmHg 93%

    21 July, Saturday

    Time Temperature Precipitation Wind Pressure Humidity
    00:00 +16°C° 0 mm 1 mps 732 mmHg 93%
    01:00 +16°C° 0 mm 1 mps 732 mmHg 94%
    02:00 +15°C° 0 mm 1 mps 732 mmHg 94%
    03:00 +15°C° 0 mm 1 mps 732 mmHg 94%
    04:00 +15°C° 0 mm 1 mps 732 mmHg 94%
    05:00 +18°C° 0 mm 1 mps 732 mmHg 89%
    06:00 +19°C° 0 mm 1 mps 732 mmHg 84%
    07:00 +21°C° 0 mm 1 mps 732 mmHg 80%
    08:00 +23°C° 0 mm 1 mps 732 mmHg 73%
    09:00 +25°C° 0 mm 1 mps 732 mmHg 67%
    10:00 +26°C° 0 mm 1 mps 732 mmHg 61%
    11:00 +27°C° 0.1 mm 1 mps 732 mmHg 59%
    12:00 +27°C° 0.1 mm 1 mps 732 mmHg 58%
    13:00 +27°C° 0.1 mm 1 mps 732 mmHg 56%
    14:00 +27°C° 0.3 mm 1 mps 732 mmHg 60%
    15:00 +26°C° 0.3 mm 1 mps 731 mmHg 63%
    16:00 +26°C° 0.3 mm 1 mps 731 mmHg 67%
    17:00 +25°C° 0.3 mm 1 mps 731 mmHg 73%
    18:00 +23°C° 0.3 mm 1 mps 731 mmHg 80%
    19:00 +22°C° 0.3 mm 1 mps 731 mmHg 86%
    20:00 +21°C° 0.3 mm 1 mps 731 mmHg 88%
    21:00 +20°C° 0.3 mm 1 mps 731 mmHg 90%
    22:00 +19°C° 0.3 mm 1 mps 731 mmHg 91%
    23:00 +19°C° 0.1 mm 1 mps 731 mmHg 92%
    Show more